This demonstration page uses our WeatherBlox Daily Observations layout. Learn more.

Left ArrowRight Arrow

Hourly Observations for May 26, 2018

Temp ( °F °C ) Dew Point ( °F °C ) Humidity (%) Winds ( mph kmh ) Pressure ( in mb ) Visibility ( mi km ) Precip ( " mm )
12:53 am 00:53 Cloudy with Mist and Fog 55 12.8 54 12.2 96 96 S 5 7 30.06 1018 6 10 0.03 0.76
1:25 am 01:25 Cloudy with Mist and Fog 55 12.8 53 11.7 93 93 Calm 30.06 1018 5 8 0.01 0.25
1:53 am 01:53 Cloudy with Mist and Fog 55 12.8 54 12.2 96 96 Calm 30.04 1017 5 8 0.02 0.51
2:20 am 02:20 Cloudy 55 12.8 54 12.2 96 96 Calm 30.06 1018 9 14 0.00 0.00
2:53 am 02:53 Cloudy with Light Rain 55 12.8 54 12.2 96 96 Calm 30.04 1017 5 8 0.01 0.25
3:10 am 03:10 Cloudy with Mist and Fog 55 12.8 54 12.2 96 96 Calm 30.06 1018 5 8 0.01 0.25
3:24 am 03:24 Cloudy with Mist and Fog 55 12.8 54 12.2 96 96 Calm 30.03 1017 5 8 0.01 0.25
3:32 am 03:32 Cloudy with Mist and Fog 55 12.8 54 12.2 96 96 ENE 3 6 30.03 1017 6 10 0.02 0.51
3:53 am 03:53 Cloudy with Mist and Fog 55 12.8 54 12.2 96 96 ENE 3 6 30.03 1017 6 10 0.02 0.51
4:20 am 04:20 Cloudy with Mist and Fog 55 12.8 54 12.2 96 96 NNE 6 9 30.03 1017 6 10 0.00 0.00
4:29 am 04:29 Cloudy 55 12.8 54 12.2 96 96 NNE 6 9 30.03 1017 7 11 0.00 0.00
4:41 am 04:41 Cloudy with Mist and Fog 55 12.8 54 12.2 96 96 NNE 6 9 30.03 1017 6 10 0.00 0.00
4:53 am 04:53 Cloudy with Mist and Fog 55 12.8 54 12.2 96 96 NE 5 7 30.04 1017 4 6 0.00 0.00
5:09 am 05:09 Cloudy with Mist and Fog 55 12.8 54 12.2 96 96 NNE 5 7 30.03 1017 4 6 0.00 0.00
5:39 am 05:39 Cloudy with Mist and Fog 55 12.8 54 12.2 96 96 NNE 6 9 30.06 1018 5 8 0.00 0.00
5:53 am 05:53 Cloudy with Mist and Fog 55 12.8 54 12.2 96 96 NE 5 7 30.04 1017 5 8 0.00 0.00
6:53 am 06:53 Cloudy 55 12.8 54 12.2 96 96 NE 3 6 30.05 1018 10 16 0.00 0.00
7:07 am 07:07 Cloudy 56 13.3 53 11.7 90 90 NNE 3 6 30.06 1018 10 16 0.00 0.00
7:53 am 07:53 Cloudy 57 13.9 55 12.8 93 93 NE 5 7 30.05 1018 10 16 0.00 0.00
8:53 am 08:53 Cloudy 58 14.4 54 12.2 87 87 Calm 30.05 1018 10 16 0.00 0.00
9:53 am 09:53 Mostly Cloudy 61 16.1 54 12.2 78 78 N 5 7 30.05 1018 10 16 0.00 0.00
10:21 am 10:21 Partly Cloudy 62 16.7 53 11.7 73 73 Calm 30.03 1017 10 16 0.00 0.00
10:33 am 10:33 Mostly Cloudy 61 16.1 53 11.7 75 75 N 3 6 30.03 1017 10 16 0.00 0.00
10:53 am 10:53 Mostly Cloudy 64 17.8 53 11.7 68 68 Calm 30.05 1018 10 16 0.00 0.00
11:01 am 11:01 Partly Cloudy 64 17.8 54 12.2 70 70 E 5 7 30.03 1017 10 16 0.00 0.00
11:53 am 11:53 Sunny 66 18.9 53 11.7 63 63 SSW 3 6 30.04 1017 10 16 0.00 0.00
12:53 pm 12:53 Mostly Sunny 69 20.6 52 11.1 55 55 W 5 7 30.01 1016 10 16 0.00 0.00
1:53 pm 13:53 Sunny 72 22.2 51 10.6 48 48 S 6 9 29.99 1016 10 16 0.00 0.00
2:53 pm 14:53 Sunny 75 23.9 49 9.4 40 40 Calm 29.98 1015 10 16 0.00 0.00
3:53 pm 15:53 Sunny 75 23.9 49 9.4 40 40 SSW 5 7 29.96 1014 10 16 0.00 0.00
4:53 pm 16:53 Sunny 77 25 49 9.4 37 37 VRB 3 6 29.94 1014 10 16 0.00 0.00
5:53 pm 17:53 Sunny 77 25 49 9.4 37 37 SE 7 11 29.93 1014 10 16 0.00 0.00
6:53 pm 18:53 Sunny 76 24.4 51 10.6 42 42 S 8 13 29.93 1014 10 16 0.00 0.00
7:53 pm 19:53 Sunny 74 23.3 51 10.6 45 45 S 7 11 29.94 1014 10 16 0.00 0.00
8:53 pm 20:53 Clear 71 21.7 52 11.1 51 51 SSW 7 11 29.96 1014 10 16 0.00 0.00
9:53 pm 21:53 Clear 66 18.9 55 12.8 68 68 Calm 29.97 1015 10 16 0.00 0.00
10:53 pm 22:53 Clear 65 18.3 55 12.8 70 70 Calm 29.99 1016 10 16 0.00 0.00
11:53 pm 23:53 Clear 62 16.7 56 13.3 80 80 Calm 29.98 1015 10 16 0.00 0.00

Powered by AerisWeather